星链-34394 (STARLINK-34394)

导读

STARLINK-34394是美国SpaceX星链星座的成员卫星,于2025年6月28日成功发射。星链星座旨在构建全球卫星互联网通信系统,为全球偏远地区、海洋空域等场景提供低成本高速网络接入服务。该卫星延续星链设计,采用低轨部署,具备低延迟通信特性,进一步扩充了星链星座的全球覆盖与服务容量。

基本信息
目录编号:
64669
目录名称:
STARLINK-34394
国际标识:
2025-139F
轨道中心:
EARTH
卫星名称:
星链-34394
卫星全名:
星链-34394 (STARLINK-34394)
卫星状态:
在轨 (已飞行433 天)
发射日期:
2025-06-28 UTC
国别 :
美国 (US)
星等 :
--
轨道信息
数据来源 国际轨道数据
星历时间: 2026-09-02T00:33:18+0800
2天前
查看轨道信息
半长轴: 6840.828km
偏心率: 0.0001281
轨道倾角: 53.159°
近地点辐角 90.733°
升交点赤经 25.770°
平近点角 269.382°
近地点: 461.814km
远地点: 463.568km
周期: 93.847分钟
每日圈数: 15.344043
详细信息
固有亮度:
5
最大亮度:
2.5
卫星平台:
Starlink V1.0
覆盖范围:
全球
运营商:
太空探索技术公司
运营商所在国:
美国
制造商(研发单位):
太空探索技术公司
制造商所在国:
美国
使用方式:
暂无
卫星简介
Starlink 计划是 SpaceX 推出的全球卫星互联网项目,通过发射低轨道卫星,为全球尤其是偏远地区提供高速、低延迟的互联网服务。自 2019 年起,Starlink 已部署数千颗卫星,旨在缩小全球数字鸿沟,推动互联网普及。该项目还为军事、航空等行业提供通信支持,带来广泛经济效益。
2D轨道图
3D轨道图
轨道高度分析图
轨道倾角分析图
轨道综合分析图
查看轨道综合分析图
交会数据列表
事件ID 空间交会对象 最接近时刻(TCA) 交会距离 交会风险概率(CRP) 交会风险指数(CRI) 操作
CDM_260905-004305-804406-466921
2026-09-05T
00:43:26+0000
0.423 km
远距离
1.49148E-4 高风险 0.78
CDM_260905-061105-804406-466921
2026-09-05T
06:11:42+0000
0.779 km
远距离
2.685846E-5 中风险 0.64
CDM_260829-174706-466906-610621
2026-08-29T
17:47:11+0000
0.852 km
远距离
1.348144E-5 中风险 0.58
CDM_260829-152606-466906-610621
2026-08-29T
15:26:30+0000
1.416 km
极远距离
2.46135E-6 低风险 0.43
CDM_260905-104206-466906-806121
2026-09-05T
10:42:53+0000
1.841 km
极远距离
2.356987E-6 低风险 0.42
CDM_260904-064106-466906-539921
2026-09-04T
06:41:30+0000
2.173 km
极远距离
2.041437E-6 低风险 0.41
CDM_260904-163905-406206-466922
2026-09-04T
16:39:07+0000
2.787 km
极远距离
1.216358E-6 低风险 0.37
CDM_260904-185905-406206-466921
2026-09-04T
18:59:46+0000
2.865 km
极远距离
1.171215E-6 低风险 0.36
CDM_260903-075305-186606-466921
2026-09-03T
07:53:02+0000
2.818 km
极远距离
1.087174E-6 低风险 0.36
CDM_260831-020006-370406-466921
2026-08-31T
02:00:32+0000
2.839 km
极远距离
1.086314E-6 低风险 0.36